Regional Weather Roundup
Issued by NWS

Home | Current Version | Previous Version | Text Only | Print | Product List | Glossary On
Versions: 1 2 3 4 5 6 7 8 9 10 11 12 13 14 15 16 17 18 19 20 21 22 23 24 25 26 27 28 29 30 31 32 33 34 35 36 37 38 39 40 41 42 43 44 45 46 47 48 49 50
439
ASUS44 KJAN 220203
RWRMS

MISSISSIPPI HOURLY WEATHER ROUNDUP
NATIONAL WEATHER SERVICE JACKSON MS
900 PM CDT THU AUG 21 2014

NOTE: "FAIR: INDICATES FEW OR NO CLOUDS BELOW 12,000 FEET WITH NO
SIGNIFICANT WEATHER AND/OR OBSTRUCTIONS TO VISIBILITY.

MSZ001>002-007>008-010>013-018>021-025>028-034>036-220300-
NORTHWEST MISSISSIPPI

CITY           SKY/WX    TMP DP  RH WIND       PRES   REMARKS
CLARKSDALE     FAIR      81  79  94 CALM      30.06F
CLEVELAND      FAIR      82  75  79 S6        30.05S
GREENWOOD      PTCLDY    81  74  79 S7        30.07F
GREENVILLE     PTCLDY    82  75  79 S6        30.05F
GRENADA        FAIR      82  73  74 CALM      30.07S
OLIVE BRANCH   CLEAR     81  79  94 S8        30.07R
OXFORD         FAIR      81  73  78 CALM      30.09S
TUNICA         CLEAR     79  73  83 S3        30.06S
$$

MSZ003>006-009-014>017-022>024-029>033-037>039-220300-
NORTHEAST MISSISSIPPI

CITY           SKY/WX    TMP DP  RH WIND       PRES   REMARKS
BELMONT        FAIR      78  75  90 CALM      30.09R
COLUMBUS AFB   PTCLDY    80  75  85 S2        30.09R
CORINTH        FAIR      81  73  78 SW5       30.07R
GOLDN TRIANGLE PTCLDY    82  70  65 S7G17     30.11R
STARKVILLE     FAIR      81  72  74 S7        30.11R
TUPELO         CLEAR     83  73  72 CALM      30.08R
$$

MSZ040-058-220300-
CENTRAL MISSISSIPPI

CITY           SKY/WX    TMP DP  RH WIND       PRES   REMARKS
JACKSON INTL   LGT RAIN  76  74  93 SE5       30.10F
JACKSON HAWKNS LGT RAIN  78  74  87 CALM      30.09F
MERIDIAN KEY   CLEAR     82  71  69 W9        30.11R
MERIDIAN NAS   PTCLDY    82  73  74 W3        30.11R
RAYMOND        LGT RAIN  73  68  83 CALM      30.10F
VICKSBURG      CLOUDY    75  73  93 CALM      30.07F
$$

MSZ059>079-220300-
SOUTH MISSISSIPPI

CITY           SKY/WX    TMP DP  RH WIND       PRES   REMARKS
BROOKHAVEN     FAIR      73  73 100 CALM      30.12F FOG
HATTIESBURG    MOCLDY    79  76  90 NW3       30.11S
MCCOMB         CLOUDY    79  74  84 W5        30.12S
NATCHEZ        CLOUDY    75  72  88 CALM      30.10S
PINE BELT      MOCLDY    79  70  73 CALM      30.12S
$$

MSZ080>082-220300-
COASTAL MISSISSIPPI

CITY           SKY/WX    TMP DP  RH WIND       PRES   REMARKS
BILOXI         PTCLDY    85  75  72 SW6       30.10F HX  94
PASCAGOULA     PTCLDY    79  76  90 CALM      30.10F
GULFPORT       MOCLDY    84  75  74 CALM      30.10S HX  92
$$



USA.gov is the U.S. government's official web portal to all federal, state and local government web resources and services.